Hourly Data Report for February 28, 2003

SHERBROOKE A
QUEBEC

45°26'00.000" N
71°41'00.000" W
241.40 m
7028124
71610
YSC

Download Data

Hourly Data (February 2003)
Hourly Data Report for February 28, 2003
TIME
LST
Temp Definition
°C
Dew Point Definition
°C
Rel Hum Definition
%
Precip. Amount Definition
mm

Wind Dir Definition
10's deg

Wind Spd Definition
km/h
Visibility Definition
km
Stn Press Definition
kPa
Hmdx Definition


Wind Chill Definition


Weather Definition


00:00 -16.2 -21.5 64   8 11 15.0 99.13   -23  
01:00 -17.4 -22.5 64   9 6 15.0 99.11   -22  
02:00 -19.0 -23.8 66   6 9 15.0 99.11   -26  
03:00 -17.8 -23.0 64   7 9 15.0 99.10   -24  
04:00 -19.3 -24.5 63   9 7 15.0 99.10   -25  
05:00 -19.3 -24.4 64   8 7 15.0 99.10   -25  
06:00 -20.1 -25.2 64   6 9 15.0 99.10   -27  
07:00 -20.2 -25.7 61   7 9 15.0 99.13   -27  
08:00 -18.0 -24.0 59   7 13 24.1 99.14   -26 Mainly Clear
09:00 -13.9 -21.3 54   7 4 24.1 99.13   -17 Mainly Clear
10:00 -10.0 -19.3 47     0 24.1 99.12     Mainly Clear
11:00 -4.9 -16.6 39     0 24.1 99.11     Mainly Clear
12:00 -3.9 -15.2 41   29 9 24.1 99.04   -8 Mainly Clear
13:00 -2.4 -14.9 38   28 7 24.1 98.97   -5 Mainly Clear
14:00 -1.5 -14.1 38   30 7 24.1 98.93   -4 Mainly Clear
15:00 -1.0 -13.0 40   28 11 24.1 98.90   -5 Mostly Cloudy
16:00 -0.1 -13.9 35   24 4 24.1 98.90   -1 Mainly Clear
17:00 -1.7 -13.3 41   29 9 24.1 98.92   -5 Clear
18:00 -4.8 -13.2 52   30 6 15.0 98.97   -8  
19:00 -8.5 -13.7 66   28 4 15.0 99.00   -11  
20:00 -10.8 -14.8 72     0 15.0 99.04      
21:00 -11.9 -15.9 72   20 6 15.0 99.06   -16  
22:00 -12.8 -16.2 76     0 15.0 99.09      
23:00 -13.2 -16.2 78     0 9.7 99.09      

Notes on Data Quality.

Legend

  • E = Estimated
  • M = Missing
  • NA = Not Available*
  • [empty] = Indicates an unobserved value
Date modified: